IBE0104 SAEZ-LEMD

Flight info

Callsign IBE0104
Flight time N/A
Altitude 35000
Route DORVO1J DORVO UN857 KOVGO DCT MOLSU UN857 OPADU DCT GUNET N857 LZR DCT OXACA DCT SOTUK
Aircraft A359/H-SDE2E3GHIJ3J4J5LM1ORWXY/LB1D1

Departure

Time 2026-05-07 12:16
Airport Ezeiza International Airport - Ministro Pistarini (SAEZ)

Arrival

Time N/A
Airport Adolfo Suárez Madrid–Barajas Airport (LEMD)
Time Latitude Longitude Altitude Speed Heading
2026-05-07 11:50 -34.81495 -58.53857 64 ft 0 kts 348°
2026-05-07 12:05 -34.81496 -58.53857 75 ft 2 kts 348°
2026-05-07 12:05 -34.81520 -58.53850 64 ft 4 kts 348°
2026-05-07 12:06 -34.81547 -58.53844 64 ft 4 kts 348°
2026-05-07 12:06 -34.81573 -58.53837 68 ft 4 kts 348°
2026-05-07 12:06 -34.81597 -58.53831 70 ft 3 kts 348°
2026-05-07 12:06 -34.81620 -58.53820 68 ft 4 kts 313°
2026-05-07 12:07 -34.81629 -58.53794 67 ft 4 kts 260°
2026-05-07 12:07 -34.81620 -58.53765 64 ft 4 kts 231°
2026-05-07 12:07 -34.81601 -58.53742 68 ft 4 kts 222°
2026-05-07 12:07 -34.81582 -58.53721 64 ft 2 kts 222°
2026-05-07 12:08 -34.81580 -58.53719 64 ft 0 kts 222°
2026-05-07 12:10 -34.81589 -58.53729 75 ft 5 kts 222°
2026-05-07 12:10 -34.81617 -58.53760 64 ft 6 kts 222°
2026-05-07 12:10 -34.81653 -58.53786 69 ft 6 kts 191°
2026-05-07 12:11 -34.81699 -58.53758 67 ft 13 kts 147°
2026-05-07 12:11 -34.81792 -58.53696 65 ft 16 kts 154°
2026-05-07 12:11 -34.81889 -58.53620 66 ft 17 kts 130°
2026-05-07 12:11 -34.81931 -58.53484 72 ft 18 kts 104°
2026-05-07 12:12 -34.81965 -58.53329 70 ft 20 kts 105°
2026-05-07 12:12 -34.81999 -58.53163 67 ft 21 kts 103°
2026-05-07 12:12 -34.82034 -58.52983 71 ft 23 kts 103°
2026-05-07 12:12 -34.82071 -58.52797 70 ft 23 kts 103°
2026-05-07 12:13 -34.82108 -58.52604 69 ft 24 kts 103°
2026-05-07 12:13 -34.82148 -58.52402 67 ft 25 kts 104°
2026-05-07 12:13 -34.82190 -58.52190 69 ft 26 kts 103°
2026-05-07 12:13 -34.82230 -58.51992 66 ft 21 kts 104°
2026-05-07 12:14 -34.82239 -58.51947 68 ft 0 kts 103°
2026-05-07 12:14 -34.82247 -58.51906 71 ft 11 kts 104°
2026-05-07 12:14 -34.82273 -58.51813 63 ft 11 kts 129°
2026-05-07 12:14 -34.82345 -58.51792 72 ft 11 kts 187°
2026-05-07 12:15 -34.82425 -58.51810 64 ft 12 kts 191°
2026-05-07 12:15 -34.82498 -58.51847 64 ft 11 kts 220°
2026-05-07 12:15 -34.82516 -58.51940 67 ft 13 kts 279°
2026-05-07 12:15 -34.82479 -58.52150 67 ft 51 kts 283°
2026-05-07 12:16 -34.82360 -58.52825 69 ft 110 kts 282°
2026-05-07 12:16 -34.82157 -58.53935 84 ft 158 kts 282°
2026-05-07 12:16 -34.81904 -58.55269 617 ft 160 kts 281°
2026-05-07 12:16 -34.81659 -58.56591 1203 ft 162 kts 275°
2026-05-07 12:17 -34.81413 -58.57988 1567 ft 180 kts 273°
2026-05-07 12:17 -34.81356 -58.59575 1700 ft 197 kts 247°
2026-05-07 12:17 -34.82078 -58.61054 1956 ft 214 kts 228°
2026-05-07 12:17 -34.83066 -58.62525 2328 ft 232 kts 227°
2026-05-07 12:18 -34.84096 -58.64070 2975 ft 237 kts 228°
2026-05-07 12:18 -34.85126 -58.65652 3657 ft 242 kts 230°
2026-05-07 12:18 -34.86184 -58.67301 4197 ft 251 kts 230°
2026-05-07 12:18 -34.87305 -58.68959 4775 ft 257 kts 224°
2026-05-07 12:19 -34.88776 -58.70188 5381 ft 259 kts 201°
2026-05-07 12:19 -34.90543 -58.70520 6081 ft 259 kts 174°
2026-05-07 12:19 -34.92262 -58.69862 6759 ft 265 kts 151°
2026-05-07 12:19 -34.93756 -58.68477 7306 ft 275 kts 139°
2026-05-07 12:20 -34.95089 -58.66756 7935 ft 283 kts 131°
2026-05-07 12:20 -34.96278 -58.64804 8615 ft 291 kts 124°
2026-05-07 12:20 -34.97305 -58.62631 9313 ft 301 kts 117°
2026-05-07 12:20 -34.98130 -58.60243 9912 ft 312 kts 110°
2026-05-07 12:21 -34.98730 -58.57623 10230 ft 330 kts 101°
2026-05-07 12:21 -34.99037 -58.54778 10521 ft 348 kts 93°
2026-05-07 12:21 -34.99055 -58.51758 10820 ft 364 kts 88°
2026-05-07 12:21 -34.98994 -58.48627 11270 ft 375 kts 87°
2026-05-07 12:22 -34.98923 -58.45418 11889 ft 382 kts 88°
2026-05-07 12:22 -34.98852 -58.42152 12492 ft 389 kts 87°
2026-05-07 12:22 -34.98777 -58.38821 13116 ft 397 kts 87°
2026-05-07 12:22 -34.98701 -58.35436 13695 ft 404 kts 86°
2026-05-07 12:23 -34.98622 -58.31984 14279 ft 408 kts 86°
2026-05-07 12:23 -34.98543 -58.28557 14889 ft 411 kts 85°
2026-05-07 12:23 -34.98461 -58.25057 15463 ft 415 kts 84°
2026-05-07 12:23 -34.98376 -58.21469 16034 ft 420 kts 83°
2026-05-07 12:24 -34.98290 -58.17947 16563 ft 424 kts 82°
2026-05-07 12:24 -34.98202 -58.14332 17087 ft 429 kts 82°
2026-05-07 12:24 -34.98112 -58.10681 17658 ft 433 kts 81°
2026-05-07 12:24 -34.98020 -58.06985 18160 ft 438 kts 81°
2026-05-07 12:25 -34.97926 -58.03258 18642 ft 442 kts 81°
2026-05-07 12:25 -34.97830 -57.99496 19139 ft 445 kts 80°
2026-05-07 12:25 -34.97731 -57.95706 19628 ft 449 kts 80°
2026-05-07 12:25 -34.97382 -57.91957 20084 ft 441 kts 68°
2026-05-07 12:26 -34.96357 -57.88510 20525 ft 426 kts 51°
2026-05-07 12:26 -34.94733 -57.85573 21047 ft 414 kts 40°
2026-05-07 12:26 -34.92906 -57.82859 21597 ft 414 kts 39°
2026-05-07 12:26 -34.91046 -57.80158 22134 ft 417 kts 39°
2026-05-07 12:27 -34.89178 -57.77439 22682 ft 420 kts 38°
2026-05-07 12:27 -34.87299 -57.74695 23214 ft 423 kts 38°
2026-05-07 12:27 -34.85411 -57.71930 23680 ft 426 kts 38°
2026-05-07 12:27 -34.83519 -57.69157 24188 ft 426 kts 38°
2026-05-07 12:28 -34.82265 -57.67318 24538 ft 426 kts 38°
2026-05-07 12:28 -34.80367 -57.64537 25015 ft 427 kts 39°
2026-05-07 12:28 -34.78457 -57.61745 25396 ft 431 kts 39°
2026-05-07 12:28 -34.76535 -57.58933 25881 ft 432 kts 39°
2026-05-07 12:29 -34.74617 -57.56126 26411 ft 432 kts 39°
2026-05-07 12:29 -34.72697 -57.53319 26919 ft 432 kts 39°
2026-05-07 12:29 -34.70768 -57.50506 27426 ft 433 kts 39°
2026-05-07 12:29 -34.68836 -57.47698 27892 ft 434 kts 39°
2026-05-07 12:30 -34.66899 -57.44884 28350 ft 435 kts 39°
2026-05-07 12:30 -34.64958 -57.42065 28816 ft 436 kts 39°
2026-05-07 12:30 -34.63009 -57.39239 29245 ft 437 kts 40°
2026-05-07 12:30 -34.61060 -57.36412 29660 ft 437 kts 41°
2026-05-07 12:31 -34.59102 -57.33576 29997 ft 439 kts 41°
2026-05-07 12:31 -34.57136 -57.30731 30309 ft 442 kts 41°
2026-05-07 12:31 -34.55156 -57.27869 30628 ft 444 kts 41°
2026-05-07 12:31 -34.53168 -57.24996 30948 ft 445 kts 41°
2026-05-07 12:32 -34.51176 -57.22119 31247 ft 447 kts 41°
2026-05-07 12:32 -34.49170 -57.19223 31548 ft 448 kts 40°
2026-05-07 12:32 -34.47158 -57.16322 31833 ft 450 kts 40°
2026-05-07 12:32 -34.45143 -57.13419 32115 ft 452 kts 40°
2026-05-07 12:33 -34.41084 -57.07580 32600 ft 455 kts 41°
2026-05-07 12:33 -34.39037 -57.04639 32854 ft 457 kts 41°
2026-05-07 12:33 -34.36989 -57.01698 33119 ft 458 kts 40°
2026-05-07 12:34 -34.34936 -56.98750 33440 ft 457 kts 40°
2026-05-07 12:34 -34.32893 -56.95816 33796 ft 455 kts 40°
2026-05-07 12:34 -34.30856 -56.92893 34103 ft 453 kts 40°
2026-05-07 12:34 -34.28825 -56.89983 34421 ft 452 kts 40°
2026-05-07 12:35 -34.26802 -56.87088 34736 ft 450 kts 40°
2026-05-07 12:35 -34.24809 -56.84241 34983 ft 449 kts 40°
2026-05-07 12:35 -34.22785 -56.81360 35097 ft 451 kts 40°
2026-05-07 12:35 -34.20753 -56.78471 35324 ft 451 kts 40°
2026-05-07 12:36 -34.18705 -56.75556 35645 ft 448 kts 40°
2026-05-07 12:36 -34.16719 -56.72729 35940 ft 446 kts 40°
2026-05-07 12:36 -34.14720 -56.69884 36224 ft 444 kts 40°
2026-05-07 12:36 -34.12725 -56.67050 36495 ft 442 kts 40°
2026-05-07 12:37 -34.10730 -56.64222 36609 ft 443 kts 40°
2026-05-07 12:37 -34.08738 -56.61401 36597 ft 441 kts 40°
2026-05-07 12:37 -34.04762 -56.55775 36571 ft 441 kts 40°
2026-05-07 12:38 -34.00742 -56.50106 36585 ft 448 kts 40°
2026-05-07 12:38 -33.96705 -56.44406 36584 ft 447 kts 40°
2026-05-07 12:39 -33.92673 -56.38718 36583 ft 446 kts 40°
2026-05-07 12:39 -33.88637 -56.33037 36584 ft 446 kts 40°
2026-05-07 12:40 -33.84591 -56.27369 36586 ft 448 kts 40°
2026-05-07 12:40 -33.80474 -56.21654 36587 ft 453 kts 40°
2026-05-07 12:41 -33.76361 -56.15913 36590 ft 453 kts 40°
2026-05-07 12:41 -33.72262 -56.10172 36594 ft 453 kts 40°
2026-05-07 12:42 -33.68160 -56.04435 36598 ft 453 kts 40°
2026-05-07 12:42 -33.64054 -55.98707 36596 ft 452 kts 40°
2026-05-07 12:43 -33.59946 -55.92988 36600 ft 452 kts 40°
2026-05-07 12:43 -33.55834 -55.87272 36598 ft 452 kts 40°
2026-05-07 12:44 -33.51725 -55.81567 36605 ft 452 kts 40°
2026-05-07 12:44 -33.47609 -55.75866 36559 ft 453 kts 42°
2026-05-07 12:45 -33.43446 -55.70117 36610 ft 462 kts 42°
2026-05-07 12:45 -33.39203 -55.64261 36608 ft 467 kts 42°
2026-05-07 12:46 -33.34957 -55.58395 36610 ft 466 kts 42°
2026-05-07 12:46 -33.30713 -55.52545 36620 ft 466 kts 42°
2026-05-07 12:47 -33.26440 -55.46674 36625 ft 472 kts 42°